Location: Unspecified
(35.6961°N, 0.0000°E)
Time: 03:55:32
(UTC+00:00)

Altair - Pass Details

Date: 22 May 2019
Orbit: 1501 x 1683 km, 47.2° (Epoch: 23 June)

Event Time Altitude Azimuth Distance (km) Brightness Sun altitude
Rises 09:56:37 0° 303° (WNW) 4,922 9.8 59.6°
Reaches altitude 10° 09:59:50 10° 305° (NW) 3,919 9.5 60.2°
Maximum altitude 10:09:55 81° 33° (NNE) 1,645 9.0 62.0°
Drops below altitude 10° 10:19:35 10° 121° (ESE) 3,773 10.1 63.8°
Sets 10:22:37 0° 122° (ESE) 4,732 10.4 64.3°
